Date,TemperatureHighF,TemperatureAvgF,TemperatureLowF,DewpointHighF,DewpointAvgF,DewpointLowF,HumidityHigh,HumidityAvg,HumidityLow,PressureMaxIn,PressureMinIn,WindSpeedMaxMPH,WindSpeedAvgMPH,GustSpeedMaxMPH,PrecipitationSumIn
2014-2-1,39,33,29,28,22,19,86,67,48,29.00,28.64,0,0,0,0.00
2014-2-2,32,27,16,20,13,4,84,56,41,29.18,29.00,0,0,0,0.00
2014-2-3,35,25,8,24,12,-3,66,59,51,29.12,28.85,0,0,0,0.00
2014-2-4,34,32,26,30,25,19,88,77,56,29.00,28.67,0,0,0,0.00
2014-2-5,26,16,11,18,4,-2,73,59,51,29.44,29.00,0,0,0,0.00
2014-2-6,18,14,9,5,0,-5,57,54,52,29.44,29.24,0,0,0,0.00
2014-2-7,29,22,16,19,10,4,69,59,55,29.24,28.97,0,0,0,0.00
2014-2-8,34,32,28,29,26,20,86,80,70,28.97,28.85,0,0,0,0.00
2014-2-9,34,32,27,30,26,20,90,80,65,29.09,28.94,0,0,0,0.00
2014-2-10,31,24,20,20,12,7,76,60,49,29.24,29.09,0,0,0,0.00
2014-2-11,38,26,18,16,11,7,70,53,38,29.26,29.06,0,0,0,0.00
2014-2-12,51,32,18,27,18,8,72,56,38,29.06,28.85,0,0,0,0.00
2014-2-13,63,42,21,34,24,13,77,54,34,28.88,28.58,0,0,0,0.00
2014-2-14,62,51,36,33,27,20,58,41,26,28.94,28.50,0,0,0,0.00
2014-2-15,68,48,27,31,23,14,65,41,23,28.97,28.73,0,0,0,0.00
2014-2-16,70,54,32,52,34,18,71,48,26,28.91,28.58,0,0,0,0.00
2014-2-17,67,58,37,55,32,15,79,40,23,28.97,28.53,0,0,0,0.00
2014-2-18,75,53,27,34,24,13,57,35,21,28.91,28.58,0,0,0,0.00
2014-2-19,65,56,42,60,41,20,92,60,34,28.82,28.35,0,0,0,0.00
2014-2-20,66,56,39,59,34,10,85,47,26,28.91,28.23,0,0,0,0.00
2014-2-21,66,49,27,22,15,7,45,27,15,28.94,28.76,0,0,0,0.00
2014-2-22,72,58,48,32,26,17,37,29,22,28.79,28.61,0,0,0,0.00
2014-2-23,56,45,36,28,22,14,63,42,28,29.09,28.67,0,0,0,0.00
2014-2-24,50,39,27,27,20,12,54,46,39,29.12,28.88,0,0,0,0.00
2014-2-25,46,38,29,28,19,12,63,46,37,29.20,28.97,0,0,0,0.00
2014-2-26,38,27,18,11,6,2,52,41,32,29.26,28.97,0,0,0,0.00
2014-2-27,58,40,18,25,14,2,54,37,22,28.97,28.61,0,0,0,0.00
2014-2-28,64,50,41,36,29,16,68,46,34,28.76,28.47,0,0,0,0.00